UPS139 YSSY-RPLC

Flight info

Callsign UPS139
Flight time N/A
Altitude 32000
Route RIC H530 BAZZA DCT 25S43 DCT RILVO DCT GTE DCT TOREX B472 LIGPA DCT MIA W16 OLIVA OLIVA5R
Aircraft B763/H-SDE3FGHIM3RWXY/LB1

Departure

Time 2026-04-23 20:50
Airport Sydney Kingsford Smith International Airport (YSSY)

Arrival

Time N/A
Airport Clark International Airport / Clark Air Base (RPLC)
Time Latitude Longitude Altitude Speed Heading
2026-04-23 20:27 -33.93174 151.16801 28 ft 0 kts 258°
2026-04-23 20:32 -33.93172 151.16814 28 ft 2 kts 258°
2026-04-23 20:33 -33.93169 151.16832 28 ft 2 kts 258°
2026-04-23 20:33 -33.93166 151.16849 28 ft 2 kts 258°
2026-04-23 20:33 -33.93162 151.16866 28 ft 2 kts 258°
2026-04-23 20:33 -33.93161 151.16878 28 ft 1 kts 258°
2026-04-23 20:34 -33.93156 151.16895 28 ft 2 kts 240°
2026-04-23 20:34 -33.93147 151.16908 28 ft 2 kts 222°
2026-04-23 20:34 -33.93136 151.16919 28 ft 2 kts 204°
2026-04-23 20:34 -33.93121 151.16923 28 ft 2 kts 186°
2026-04-23 20:35 -33.93108 151.16923 28 ft 0 kts 170°
2026-04-23 20:35 -33.93103 151.16922 28 ft 0 kts 168°
2026-04-23 20:38 -33.93119 151.16927 28 ft 3 kts 168°
2026-04-23 20:38 -33.93147 151.16934 28 ft 5 kts 168°
2026-04-23 20:39 -33.93181 151.16942 28 ft 6 kts 168°
2026-04-23 20:39 -33.93231 151.16957 28 ft 7 kts 161°
2026-04-23 20:39 -33.93281 151.16994 28 ft 8 kts 139°
2026-04-23 20:39 -33.93332 151.17049 27 ft 11 kts 146°
2026-04-23 20:40 -33.93406 151.17079 26 ft 11 kts 168°
2026-04-23 20:40 -33.93492 151.17099 26 ft 13 kts 169°
2026-04-23 20:40 -33.93588 151.17125 23 ft 15 kts 168°
2026-04-23 20:40 -33.93693 151.17152 22 ft 15 kts 169°
2026-04-23 20:41 -33.93798 151.17175 21 ft 14 kts 169°
2026-04-23 20:41 -33.93888 151.17201 21 ft 12 kts 166°
2026-04-23 20:41 -33.93960 151.17221 21 ft 9 kts 168°
2026-04-23 20:41 -33.94013 151.17235 22 ft 6 kts 168°
2026-04-23 20:42 -33.94053 151.17246 22 ft 5 kts 168°
2026-04-23 20:42 -33.94090 151.17255 23 ft 5 kts 168°
2026-04-23 20:42 -33.94132 151.17265 22 ft 7 kts 167°
2026-04-23 20:42 -33.94188 151.17281 22 ft 8 kts 167°
2026-04-23 20:43 -33.94249 151.17297 23 ft 9 kts 168°
2026-04-23 20:43 -33.94325 151.17317 24 ft 12 kts 168°
2026-04-23 20:43 -33.94423 151.17342 24 ft 16 kts 169°
2026-04-23 20:43 -33.94548 151.17372 24 ft 20 kts 168°
2026-04-23 20:44 -33.94696 151.17413 23 ft 23 kts 167°
2026-04-23 20:44 -33.94855 151.17453 21 ft 22 kts 168°
2026-04-23 20:44 -33.95005 151.17491 21 ft 20 kts 167°
2026-04-23 20:44 -33.95141 151.17528 19 ft 19 kts 168°
2026-04-23 20:45 -33.95267 151.17560 18 ft 17 kts 168°
2026-04-23 20:45 -33.95379 151.17587 17 ft 15 kts 168°
2026-04-23 20:45 -33.95477 151.17613 18 ft 13 kts 167°
2026-04-23 20:45 -33.95559 151.17636 17 ft 11 kts 167°
2026-04-23 20:46 -33.95631 151.17654 17 ft 10 kts 168°
2026-04-23 20:46 -33.95696 151.17671 18 ft 9 kts 168°
2026-04-23 20:46 -33.95761 151.17688 18 ft 10 kts 168°
2026-04-23 20:46 -33.95839 151.17709 18 ft 12 kts 167°
2026-04-23 20:47 -33.95937 151.17734 18 ft 15 kts 168°
2026-04-23 20:47 -33.96055 151.17764 18 ft 18 kts 168°
2026-04-23 20:47 -33.96192 151.17796 18 ft 21 kts 169°
2026-04-23 20:47 -33.96344 151.17839 17 ft 20 kts 167°
2026-04-23 20:48 -33.96439 151.17900 17 ft 9 kts 114°
2026-04-23 20:48 -33.96436 151.17969 18 ft 7 kts 82°
2026-04-23 20:48 -33.96427 151.18018 18 ft 5 kts 69°
2026-04-23 20:48 -33.96406 151.18047 18 ft 4 kts 31°
2026-04-23 20:49 -33.96376 151.18051 18 ft 4 kts 349°
2026-04-23 20:49 -33.96368 151.18050 18 ft 4 kts 349°
2026-04-23 20:49 -33.96204 151.18007 18 ft 49 kts 348°
2026-04-23 20:49 -33.95694 151.17874 18 ft 99 kts 348°
2026-04-23 20:50 -33.94874 151.17658 24 ft 141 kts 348°
2026-04-23 20:50 -33.93808 151.17374 120 ft 168 kts 346°
2026-04-23 20:50 -33.92637 151.17052 406 ft 179 kts 347°
2026-04-23 20:50 -33.91452 151.16731 1009 ft 173 kts 349°
2026-04-23 20:51 -33.90261 151.16419 1345 ft 180 kts 350°
2026-04-23 20:51 -33.89010 151.16045 1520 ft 193 kts 338°
2026-04-23 20:51 -33.87911 151.14990 1716 ft 210 kts 313°
2026-04-23 20:51 -33.86876 151.13614 1874 ft 234 kts 315°
2026-04-23 20:52 -33.85755 151.12151 2276 ft 247 kts 314°
2026-04-23 20:52 -33.84586 151.10608 2710 ft 260 kts 314°
2026-04-23 20:52 -33.83369 151.08997 3254 ft 269 kts 314°
2026-04-23 20:52 -33.82124 151.07344 3961 ft 272 kts 314°
2026-04-23 20:53 -33.80842 151.05643 4609 ft 277 kts 314°
2026-04-23 20:53 -33.79544 151.03920 5280 ft 280 kts 314°
2026-04-23 20:53 -33.78228 151.02173 5937 ft 285 kts 314°
2026-04-23 20:53 -33.76905 151.00417 6576 ft 289 kts 314°
2026-04-23 20:54 -33.75541 150.98610 7256 ft 291 kts 314°
2026-04-23 20:54 -33.74193 150.96822 7879 ft 295 kts 314°
2026-04-23 20:54 -33.72815 150.94997 8543 ft 297 kts 313°
2026-04-23 20:54 -33.71425 150.93156 9169 ft 300 kts 313°
2026-04-23 20:55 -33.70011 150.91286 9805 ft 303 kts 313°
2026-04-23 20:55 -33.68604 150.89424 10395 ft 307 kts 313°
2026-04-23 20:55 -33.67113 150.87451 10665 ft 325 kts 312°
2026-04-23 20:55 -33.65573 150.85417 10968 ft 341 kts 312°
2026-04-23 20:56 -33.63933 150.83250 11386 ft 354 kts 312°
2026-04-23 20:56 -33.62271 150.81058 12078 ft 357 kts 313°
2026-04-23 20:56 -33.60588 150.78838 12704 ft 362 kts 313°
2026-04-23 20:56 -33.58890 150.76627 13312 ft 366 kts 314°
2026-04-23 20:57 -33.57156 150.74434 13957 ft 369 kts 313°
2026-04-23 20:57 -33.55370 150.72163 14593 ft 373 kts 314°
2026-04-23 20:57 -33.53575 150.69884 15165 ft 378 kts 314°
2026-04-23 20:57 -33.51780 150.67607 15766 ft 381 kts 314°
2026-04-23 20:58 -33.49947 150.65285 16355 ft 384 kts 314°
2026-04-23 20:58 -33.48117 150.62967 16944 ft 387 kts 314°
2026-04-23 20:58 -33.46253 150.60606 17506 ft 390 kts 314°
2026-04-23 20:58 -33.44394 150.58255 18062 ft 393 kts 314°
2026-04-23 20:59 -33.42502 150.55864 18629 ft 396 kts 314°
2026-04-23 20:59 -33.40590 150.53448 19167 ft 400 kts 314°
2026-04-23 20:59 -33.38675 150.51030 19726 ft 403 kts 314°
2026-04-23 20:59 -33.36745 150.48596 20262 ft 406 kts 314°
2026-04-23 21:00 -33.34794 150.46137 20731 ft 410 kts 314°
2026-04-23 21:00 -33.32827 150.43658 21269 ft 413 kts 313°
2026-04-23 21:00 -33.30843 150.41159 21795 ft 416 kts 313°
2026-04-23 21:00 -33.28851 150.38655 22252 ft 420 kts 313°
2026-04-23 21:01 -33.26833 150.36116 22799 ft 422 kts 313°
2026-04-23 21:01 -33.24798 150.33560 23245 ft 426 kts 314°
2026-04-23 21:01 -33.22767 150.31010 23773 ft 427 kts 313°
2026-04-23 21:01 -33.20680 150.28392 24176 ft 432 kts 313°
2026-04-23 21:02 -33.18623 150.25813 24649 ft 434 kts 313°
2026-04-23 21:02 -33.16533 150.23195 25025 ft 439 kts 313°
2026-04-23 21:02 -33.14417 150.20546 25431 ft 443 kts 313°
2026-04-23 21:02 -33.12330 150.17937 25860 ft 445 kts 313°
2026-04-23 21:03 -33.10199 150.15273 26221 ft 450 kts 313°
2026-04-23 21:03 -33.08011 150.12540 26694 ft 452 kts 313°
2026-04-23 21:03 -33.05867 150.09865 27048 ft 456 kts 313°
2026-04-23 21:03 -33.03667 150.07123 27485 ft 458 kts 313°
2026-04-23 21:04 -33.01488 150.04407 27806 ft 462 kts 313°
2026-04-23 21:04 -32.99266 150.01642 28249 ft 464 kts 312°
2026-04-23 21:04 -32.97017 149.98840 28540 ft 470 kts 312°
2026-04-23 21:04 -32.94758 149.96034 28973 ft 471 kts 312°
2026-04-23 21:05 -32.92461 149.93179 29296 ft 475 kts 312°
2026-04-23 21:05 -32.90195 149.90367 29721 ft 477 kts 312°
2026-04-23 21:05 -32.87857 149.87468 29973 ft 482 kts 312°
2026-04-23 21:05 -32.85572 149.84637 30418 ft 482 kts 312°
2026-04-23 21:06 -32.83222 149.81728 30716 ft 486 kts 312°
2026-04-23 21:06 -32.80885 149.78834 31044 ft 489 kts 311°
2026-04-23 21:06 -32.78527 149.75922 31501 ft 488 kts 311°
2026-04-23 21:06 -32.76186 149.73030 31907 ft 488 kts 311°
2026-04-23 21:07 -32.73917 149.70229 32293 ft 488 kts 311°
2026-04-23 21:07 -32.71546 149.67303 32483 ft 486 kts 311°
2026-04-23 21:07 -32.66867 149.61540 32485 ft 484 kts 311°
2026-04-23 21:08 -32.62214 149.55818 32469 ft 484 kts 311°
2026-04-23 21:08 -32.57552 149.50093 32457 ft 485 kts 311°
2026-04-23 21:09 -32.52844 149.44322 32467 ft 486 kts 311°
2026-04-23 21:09 -32.48157 149.38586 32465 ft 486 kts 311°
2026-04-23 21:10 -32.43459 149.32846 32459 ft 485 kts 312°
2026-04-23 21:10 -32.38776 149.27132 32467 ft 487 kts 312°
2026-04-23 21:11 -32.34057 149.21384 32473 ft 488 kts 312°
2026-04-23 21:11 -32.29347 149.15655 32478 ft 486 kts 312°
2026-04-23 21:12 -32.24622 149.09920 32470 ft 486 kts 312°
2026-04-23 21:12 -32.19923 149.04224 32471 ft 487 kts 312°
2026-04-23 21:13 -32.15187 148.98489 32474 ft 487 kts 312°
2026-04-23 21:13 -32.10483 148.92804 32469 ft 487 kts 312°
2026-04-23 21:14 -32.05548 148.87341 32472 ft 490 kts 323°
2026-04-23 21:14 -31.99899 148.82835 32464 ft 492 kts 325°
2026-04-23 21:15 -31.94175 148.78380 32467 ft 492 kts 325°
2026-04-23 21:15 -31.88482 148.73985 32460 ft 490 kts 325°
2026-04-23 21:16 -31.82759 148.69583 32444 ft 493 kts 325°
2026-04-23 21:16 -31.77008 148.65170 32440 ft 496 kts 325°
2026-04-23 21:17 -31.71216 148.60733 32430 ft 494 kts 325°
2026-04-23 21:17 -31.65473 148.56340 32434 ft 494 kts 325°
2026-04-23 21:18 -31.59702 148.51933 32441 ft 496 kts 324°
2026-04-23 21:18 -31.53949 148.47548 32433 ft 496 kts 324°
2026-04-23 21:19 -31.48150 148.43132 32437 ft 497 kts 324°
2026-04-23 21:19 -31.42342 148.38716 32438 ft 496 kts 324°
2026-04-23 21:20 -31.36555 148.34323 32431 ft 496 kts 325°
2026-04-23 21:20 -31.30748 148.29921 32437 ft 499 kts 325°
2026-04-23 21:21 -31.24941 148.25526 32428 ft 499 kts 325°
2026-04-23 21:21 -31.19083 148.21101 32426 ft 501 kts 324°
2026-04-23 21:22 -31.13247 148.16698 32423 ft 501 kts 325°
2026-04-23 21:22 -31.07383 148.12279 32412 ft 502 kts 324°
2026-04-23 21:23 -31.01519 148.07869 32411 ft 501 kts 324°
2026-04-23 21:23 -30.95669 148.03474 32408 ft 502 kts 324°
2026-04-23 21:24 -30.89800 147.99072 32412 ft 506 kts 324°
2026-04-23 21:24 -30.83883 147.94640 32408 ft 502 kts 324°
2026-04-23 21:25 -30.78026 147.90262 32412 ft 503 kts 324°
2026-04-23 21:25 -30.72111 147.85846 32407 ft 502 kts 324°
2026-04-23 21:26 -30.66271 147.81490 32412 ft 502 kts 324°
2026-04-23 21:26 -30.60375 147.77100 32413 ft 503 kts 324°
2026-04-23 21:27 -30.54494 147.72729 32417 ft 505 kts 324°
2026-04-23 21:27 -30.48580 147.68339 32411 ft 503 kts 324°
2026-04-23 21:28 -30.42687 147.63972 32406 ft 503 kts 324°
2026-04-23 21:28 -30.36800 147.59615 32405 ft 503 kts 324°
2026-04-23 21:29 -30.30895 147.55250 32397 ft 503 kts 324°
2026-04-23 21:29 -30.24693 147.51474 32406 ft 507 kts 331°
2026-04-23 21:30 -30.18336 147.47896 32402 ft 508 kts 331°
2026-04-23 21:30 -30.11985 147.44344 32397 ft 507 kts 332°
2026-04-23 21:31 -30.05639 147.40805 32405 ft 507 kts 332°
2026-04-23 21:31 -29.99280 147.37265 32397 ft 508 kts 332°
2026-04-23 21:32 -29.92908 147.33725 32391 ft 507 kts 332°
2026-04-23 21:32 -29.86558 147.30203 32370 ft 508 kts 332°
2026-04-23 21:33 -29.80189 147.26674 32375 ft 508 kts 332°
2026-04-23 21:33 -29.73822 147.23152 32372 ft 508 kts 332°
2026-04-23 21:34 -29.67433 147.19623 32378 ft 509 kts 332°
2026-04-23 21:34 -29.61039 147.16093 32371 ft 508 kts 332°
2026-04-23 21:35 -29.54697 147.12601 32372 ft 508 kts 332°
2026-04-23 21:35 -29.48299 147.09082 32365 ft 508 kts 332°
2026-04-23 21:36 -29.38726 147.03824 32368 ft 510 kts 332°
2026-04-23 21:37 -29.32341 147.00323 32367 ft 510 kts 332°
2026-04-23 21:37 -29.25905 146.96800 32367 ft 510 kts 332°
2026-04-23 21:38 -29.19515 146.93308 32367 ft 508 kts 331°
2026-04-23 21:38 -29.13135 146.89827 32369 ft 510 kts 332°
2026-04-23 21:39 -29.06771 146.86357 32367 ft 509 kts 332°
2026-04-23 21:39 -29.00386 146.82881 32369 ft 507 kts 331°
2026-04-23 21:40 -28.93975 146.79398 32364 ft 508 kts 331°
2026-04-23 21:40 -28.87608 146.75940 32348 ft 507 kts 331°
2026-04-23 21:41 -28.81265 146.72502 32351 ft 505 kts 331°
2026-04-23 21:41 -28.75055 146.68747 32360 ft 499 kts 319°
2026-04-23 21:42 -28.69820 146.63715 32355 ft 494 kts 313°
2026-04-23 21:42 -28.64711 146.58517 32355 ft 493 kts 313°
2026-04-23 21:43 -28.59590 146.53270 32359 ft 492 kts 313°
2026-04-23 21:43 -28.54512 146.48062 32358 ft 493 kts 313°
2026-04-23 21:44 -28.49441 146.42865 32358 ft 493 kts 312°
2026-04-23 21:44 -28.44346 146.37648 32356 ft 491 kts 312°
2026-04-23 21:45 -28.39291 146.32478 32362 ft 491 kts 313°
2026-04-23 21:45 -28.34189 146.27266 32360 ft 493 kts 313°
2026-04-23 21:46 -28.29097 146.22075 32350 ft 490 kts 313°
2026-04-23 21:46 -28.24075 146.16959 32349 ft 488 kts 313°
2026-04-23 21:47 -28.19014 146.11809 32351 ft 489 kts 313°
2026-04-23 21:47 -28.13928 146.06644 32352 ft 489 kts 313°
2026-04-23 21:48 -28.08868 146.01509 32350 ft 488 kts 313°
2026-04-23 21:48 -28.03826 145.96402 32349 ft 488 kts 313°
2026-04-23 21:49 -27.98779 145.91293 32350 ft 486 kts 313°
2026-04-23 21:49 -27.93748 145.86209 32350 ft 486 kts 313°
2026-04-23 21:50 -27.88698 145.81113 32339 ft 486 kts 313°
2026-04-23 21:50 -27.83652 145.76027 32338 ft 485 kts 313°
2026-04-23 21:51 -27.78608 145.70949 32335 ft 485 kts 313°
2026-04-23 21:51 -27.73577 145.65892 32339 ft 485 kts 313°
2026-04-23 21:52 -27.68552 145.60846 32335 ft 484 kts 313°
2026-04-23 21:52 -27.63545 145.55827 32340 ft 483 kts 313°
2026-04-23 21:53 -27.58524 145.50797 32339 ft 482 kts 313°
2026-04-23 21:53 -27.53510 145.45783 32339 ft 480 kts 313°
2026-04-23 21:54 -27.48609 145.40886 32337 ft 481 kts 313°
2026-04-23 21:54 -27.43586 145.35875 32336 ft 482 kts 313°
2026-04-23 21:55 -27.38582 145.30890 32329 ft 480 kts 314°
2026-04-23 21:55 -27.33583 145.25914 32332 ft 480 kts 313°
2026-04-23 21:56 -27.28578 145.20940 32330 ft 479 kts 313°
2026-04-23 21:56 -27.23597 145.15996 32332 ft 478 kts 313°
2026-04-23 21:57 -27.18622 145.11063 32332 ft 478 kts 313°
2026-04-23 21:57 -27.13639 145.06128 32335 ft 479 kts 313°
2026-04-23 21:58 -27.08662 145.01207 32336 ft 477 kts 313°
2026-04-23 21:58 -27.03695 144.96301 32337 ft 477 kts 313°
2026-04-23 21:59 -26.98692 144.91365 32334 ft 476 kts 313°
2026-04-23 21:59 -26.93745 144.86490 32324 ft 475 kts 314°
2026-04-23 22:00 -26.86310 144.79175 32306 ft 474 kts 313°
2026-04-23 22:00 -26.81356 144.74309 32307 ft 474 kts 313°
2026-04-23 22:01 -26.76386 144.69432 32310 ft 475 kts 314°
2026-04-23 22:01 -26.71448 144.64594 32308 ft 474 kts 313°
2026-04-23 22:02 -26.66480 144.59732 32305 ft 472 kts 313°
2026-04-23 22:02 -26.61558 144.54918 32310 ft 472 kts 313°
2026-04-23 22:03 -26.56622 144.50098 32304 ft 472 kts 313°
2026-04-23 22:03 -26.51654 144.45253 32305 ft 472 kts 313°
2026-04-23 22:04 -26.46735 144.40462 32302 ft 470 kts 313°
2026-04-23 22:04 -26.41802 144.35660 32310 ft 471 kts 313°
2026-04-23 22:05 -26.36828 144.30827 32319 ft 474 kts 314°
2026-04-23 22:05 -26.31888 144.26031 32315 ft 472 kts 314°
2026-04-23 22:06 -26.26921 144.21217 32313 ft 472 kts 314°
2026-04-23 22:06 -26.21978 144.16429 32312 ft 471 kts 313°
2026-04-23 22:07 -26.17032 144.11646 32308 ft 471 kts 313°
2026-04-23 22:07 -26.12114 144.06894 32305 ft 472 kts 314°
2026-04-23 22:08 -26.07123 144.02077 32306 ft 472 kts 314°
2026-04-23 22:08 -26.02174 143.97308 32310 ft 470 kts 313°
2026-04-23 22:09 -25.97243 143.92560 32298 ft 473 kts 313°
2026-04-23 22:09 -25.92281 143.87787 32312 ft 471 kts 313°
2026-04-23 22:10 -25.87331 143.83035 32283 ft 470 kts 313°
2026-04-23 22:10 -25.82381 143.78282 32280 ft 472 kts 313°
2026-04-23 22:11 -25.77390 143.73503 32271 ft 470 kts 313°
2026-04-23 22:11 -25.72461 143.68782 32280 ft 468 kts 313°
2026-04-23 22:12 -25.67540 143.64076 32272 ft 469 kts 313°
2026-04-23 22:12 -25.62605 143.59364 32284 ft 468 kts 313°
2026-04-23 22:13 -25.57662 143.54648 32274 ft 468 kts 313°
2026-04-23 22:13 -25.52741 143.49959 32274 ft 470 kts 313°
2026-04-23 22:14 -25.47766 143.45224 32264 ft 468 kts 312°
2026-04-23 22:14 -25.42852 143.40552 32282 ft 467 kts 312°
2026-04-23 22:15 -25.37921 143.35869 32270 ft 467 kts 311°
2026-04-23 22:15 -25.32981 143.31183 32280 ft 468 kts 312°
2026-04-23 22:16 -25.28062 143.26520 32274 ft 467 kts 312°
2026-04-23 22:16 -25.23108 143.21831 32285 ft 470 kts 312°
2026-04-23 22:17 -25.18173 143.17166 32273 ft 465 kts 312°
2026-04-23 22:17 -25.13258 143.12524 32275 ft 464 kts 311°
2026-04-23 22:18 -25.08365 143.07909 32270 ft 464 kts 311°
2026-04-23 22:18 -25.03442 143.03267 32276 ft 466 kts 311°
2026-04-23 22:19 -24.98096 142.99120 32290 ft 478 kts 325°
2026-04-23 22:19 -24.92146 142.95723 32257 ft 483 kts 326°
2026-04-23 22:20 -24.86140 142.92358 32234 ft 483 kts 326°
2026-04-23 22:20 -24.80144 142.89031 32246 ft 482 kts 325°
2026-04-23 22:21 -24.74163 142.85721 32240 ft 481 kts 325°
2026-04-23 22:21 -24.68182 142.82417 32250 ft 485 kts 325°
2026-04-23 22:22 -24.62147 142.79092 32233 ft 481 kts 324°
2026-04-23 22:22 -24.56152 142.75790 32249 ft 484 kts 324°
2026-04-23 22:23 -24.50104 142.72463 32254 ft 484 kts 324°
2026-04-23 22:23 -24.44110 142.69170 32245 ft 482 kts 324°
2026-04-23 22:24 -24.38098 142.65869 32243 ft 483 kts 324°
2026-04-23 22:24 -24.32060 142.62558 32247 ft 484 kts 324°
2026-04-23 22:25 -24.26088 142.59288 32252 ft 482 kts 324°
2026-04-23 22:25 -24.20052 142.55984 32251 ft 484 kts 324°
2026-04-23 22:26 -24.14012 142.52683 32252 ft 484 kts 324°
2026-04-23 22:26 -24.08017 142.49411 32242 ft 483 kts 324°
2026-04-23 22:27 -24.01978 142.46118 32250 ft 481 kts 324°
2026-04-23 22:27 -23.96023 142.42873 32236 ft 480 kts 323°
2026-04-23 22:28 -23.90030 142.39610 32236 ft 482 kts 323°
2026-04-23 22:28 -23.84022 142.36345 32219 ft 480 kts 323°
2026-04-23 22:29 -23.78073 142.33113 32242 ft 479 kts 324°
2026-04-23 22:29 -23.72058 142.29846 32232 ft 484 kts 324°
2026-04-23 22:30 -23.66036 142.26587 32217 ft 480 kts 323°
2026-04-23 22:30 -23.60048 142.23344 32235 ft 476 kts 323°
2026-04-23 22:31 -23.54112 142.20132 32228 ft 476 kts 323°
2026-04-23 22:31 -23.48157 142.16913 32230 ft 481 kts 323°
2026-04-23 22:32 -23.42153 142.13672 32228 ft 480 kts 323°
2026-04-23 22:32 -23.36206 142.10466 32226 ft 477 kts 323°
2026-04-23 22:33 -23.30250 142.07257 32232 ft 478 kts 323°
2026-04-23 22:33 -23.24246 142.04027 32223 ft 478 kts 323°
2026-04-23 22:34 -23.18348 142.00858 32232 ft 472 kts 323°
2026-04-23 22:34 -23.12414 141.97667 32234 ft 475 kts 323°
2026-04-23 22:35 -23.06472 141.94479 32229 ft 477 kts 323°
2026-04-23 22:35 -23.00578 141.91322 32228 ft 471 kts 323°
2026-04-23 22:36 -22.94695 141.88171 32232 ft 470 kts 323°
2026-04-23 22:36 -22.88779 141.85002 32226 ft 475 kts 323°
2026-04-23 22:37 -22.82881 141.81854 32225 ft 472 kts 323°
2026-04-23 22:37 -22.76969 141.78697 32224 ft 470 kts 323°
2026-04-23 22:38 -22.71100 141.75566 32219 ft 470 kts 323°
2026-04-23 22:38 -22.65239 141.72443 32224 ft 469 kts 323°
2026-04-23 22:39 -22.59371 141.69318 32221 ft 470 kts 323°
2026-04-23 22:39 -22.53493 141.66190 32216 ft 470 kts 323°
2026-04-23 22:40 -22.47642 141.63083 32216 ft 468 kts 323°
2026-04-23 22:41 -22.38868 141.58424 32212 ft 468 kts 323°
2026-04-23 22:41 -22.33037 141.55335 32219 ft 465 kts 323°
2026-04-23 22:42 -22.27200 141.52243 32213 ft 464 kts 323°
2026-04-23 22:42 -22.21394 141.49168 32212 ft 466 kts 323°
2026-04-23 22:43 -22.15597 141.46106 32211 ft 462 kts 323°
2026-04-23 22:43 -22.09809 141.43048 32217 ft 463 kts 323°
2026-04-23 22:44 -22.03983 141.39972 32220 ft 467 kts 323°
2026-04-23 22:44 -21.98174 141.36912 32213 ft 463 kts 323°
2026-04-23 22:45 -21.92387 141.33864 32225 ft 463 kts 323°
2026-04-23 22:45 -21.86550 141.30789 32219 ft 467 kts 324°
2026-04-23 22:46 -21.80734 141.27733 32213 ft 465 kts 324°
2026-04-23 22:46 -21.74931 141.24687 32215 ft 462 kts 323°
2026-04-23 22:47 -21.69125 141.21637 32215 ft 464 kts 324°
2026-04-23 22:47 -21.63306 141.18585 32208 ft 466 kts 324°
2026-04-23 22:48 -21.57467 141.15529 32211 ft 464 kts 324°
2026-04-23 22:48 -21.51660 141.12488 32207 ft 465 kts 324°
2026-04-23 22:49 -21.45838 141.09444 32210 ft 466 kts 324°
2026-04-23 22:49 -21.39975 141.06380 32212 ft 467 kts 324°
2026-04-23 22:50 -21.34152 141.03342 32202 ft 466 kts 324°
2026-04-23 22:50 -21.28302 141.00288 32211 ft 468 kts 324°
2026-04-23 22:51 -21.22412 140.97221 32207 ft 469 kts 324°
2026-04-23 22:51 -21.16570 140.94180 32207 ft 467 kts 324°
2026-04-23 22:52 -21.10702 140.91128 32206 ft 466 kts 324°
2026-04-23 22:52 -21.04870 140.88097 32206 ft 466 kts 324°
2026-04-23 22:53 -20.99050 140.85075 32203 ft 466 kts 324°
2026-04-23 22:53 -20.93176 140.82027 32204 ft 469 kts 325°
2026-04-23 22:54 -20.87297 140.78981 32190 ft 469 kts 324°
2026-04-23 22:54 -20.81436 140.75948 32194 ft 465 kts 324°
2026-04-23 22:55 -20.75601 140.72926 32199 ft 468 kts 325°
2026-04-23 22:55 -20.69749 140.69900 32189 ft 467 kts 325°
2026-04-23 22:56 -20.63875 140.66869 32188 ft 465 kts 325°
2026-04-23 22:56 -20.58031 140.63850 32185 ft 467 kts 325°
2026-04-23 22:57 -20.52200 140.60844 32187 ft 467 kts 325°
2026-04-23 22:57 -20.46344 140.57828 32187 ft 466 kts 325°
2026-04-23 22:58 -20.40474 140.54807 32186 ft 466 kts 325°
2026-04-23 22:58 -20.34635 140.51804 32185 ft 465 kts 325°
2026-04-23 22:59 -20.28824 140.48817 32176 ft 464 kts 325°
2026-04-23 22:59 -20.23012 140.45833 32176 ft 464 kts 325°
2026-04-23 23:00 -20.17143 140.42821 32179 ft 466 kts 325°
2026-04-23 23:00 -20.11292 140.39844 32169 ft 466 kts 326°
2026-04-23 23:00 -20.08502 140.38216 32178 ft 455 kts 317°
2026-04-23 23:01 -20.05840 140.36331 32174 ft 455 kts 317°
2026-04-23 23:01 -20.00507 140.32674 32185 ft 458 kts 319°
2026-04-23 23:02 -19.95119 140.29040 32182 ft 458 kts 319°
2026-04-23 23:02 -19.89727 140.25427 32180 ft 456 kts 319°
2026-04-23 23:03 -19.84368 140.21848 32172 ft 456 kts 319°
2026-04-23 23:03 -19.78967 140.18245 32171 ft 455 kts 319°
2026-04-23 23:04 -19.73608 140.14674 32171 ft 456 kts 319°
2026-04-23 23:04 -19.68232 140.11098 32167 ft 455 kts 319°
2026-04-23 23:05 -19.62858 140.07523 32163 ft 456 kts 319°
2026-04-23 23:05 -19.57463 140.03938 32162 ft 456 kts 320°
2026-04-23 23:06 -19.52115 140.00388 32153 ft 454 kts 320°
2026-04-23 23:06 -19.46725 139.96811 32156 ft 454 kts 320°
2026-04-23 23:07 -19.41358 139.93254 32163 ft 456 kts 320°
2026-04-23 23:07 -19.35981 139.89691 32152 ft 455 kts 320°
2026-04-23 23:08 -19.30614 139.86140 32153 ft 454 kts 320°
2026-04-23 23:08 -19.25250 139.82591 32156 ft 454 kts 320°
2026-04-23 23:09 -19.19894 139.79053 32148 ft 454 kts 320°
2026-04-23 23:09 -19.14547 139.75523 32147 ft 452 kts 320°
2026-04-23 23:10 -19.10107 139.72592 32143 ft 452 kts 320°
2026-04-23 23:10 -19.03878 139.68486 32132 ft 452 kts 320°
2026-04-23 23:11 -18.98546 139.64972 32125 ft 451 kts 320°
2026-04-23 23:11 -18.93185 139.61444 32136 ft 453 kts 320°
2026-04-23 23:12 -18.87837 139.57925 32121 ft 454 kts 320°
2026-04-23 23:12 -18.82449 139.54384 32119 ft 455 kts 320°
2026-04-23 23:13 -18.77091 139.50865 32122 ft 455 kts 320°
2026-04-23 23:13 -18.71719 139.47340 32118 ft 454 kts 320°
2026-04-23 23:14 -18.66327 139.43803 32112 ft 455 kts 320°
2026-04-23 23:14 -18.60972 139.40295 32103 ft 453 kts 320°
2026-04-23 23:15 -18.55596 139.36775 32106 ft 454 kts 320°
2026-04-23 23:15 -18.50224 139.33260 32110 ft 455 kts 321°
2026-04-23 23:16 -18.44825 139.29730 32104 ft 454 kts 321°
2026-04-23 23:16 -18.39463 139.26225 32110 ft 456 kts 321°
2026-04-23 23:17 -18.34047 139.22690 32106 ft 457 kts 321°
2026-04-23 23:17 -18.28648 139.19170 32101 ft 455 kts 321°
2026-04-23 23:18 -18.23266 139.15660 32102 ft 455 kts 321°
2026-04-23 23:18 -18.17901 139.12166 32103 ft 455 kts 321°
2026-04-23 23:19 -18.12509 139.08656 32098 ft 454 kts 321°
2026-04-23 23:19 -18.07106 139.05142 32100 ft 453 kts 321°
2026-04-23 23:20 -18.01749 139.01660 32100 ft 455 kts 321°
2026-04-23 23:20 -17.96334 138.98143 32097 ft 456 kts 321°
2026-04-23 23:21 -17.90927 138.94634 32098 ft 457 kts 321°
2026-04-23 23:21 -17.85543 138.91142 32091 ft 455 kts 321°
2026-04-23 23:22 -17.80131 138.87636 32088 ft 453 kts 321°
2026-04-23 23:22 -17.74755 138.84152 32095 ft 456 kts 321°
2026-04-23 23:23 -17.69362 138.80662 32092 ft 455 kts 322°
2026-04-23 23:23 -17.63963 138.77173 32094 ft 454 kts 322°
2026-04-23 23:24 -17.58603 138.73709 32092 ft 453 kts 322°
2026-04-23 23:24 -17.53210 138.70226 32094 ft 452 kts 322°
2026-04-23 23:25 -17.47833 138.66756 32096 ft 454 kts 322°
2026-04-23 23:25 -17.42475 138.63301 32089 ft 454 kts 322°
2026-04-23 23:26 -17.37066 138.59816 32092 ft 453 kts 322°
2026-04-23 23:26 -17.31706 138.56364 32087 ft 453 kts 322°
2026-04-23 23:27 -17.26315 138.52895 32090 ft 453 kts 322°
2026-04-23 23:27 -17.20937 138.49437 32084 ft 453 kts 322°
2026-04-23 23:28 -17.15540 138.45969 32081 ft 453 kts 322°
2026-04-23 23:28 -17.10455 138.42703 32083 ft 454 kts 322°
2026-04-23 23:29 -17.05100 138.39267 32075 ft 452 kts 322°
2026-04-23 23:29 -16.99693 138.35799 32072 ft 453 kts 322°
2026-04-23 23:30 -16.94336 138.32365 32085 ft 453 kts 323°
2026-04-23 23:30 -16.88956 138.28920 32077 ft 453 kts 323°
2026-04-23 23:31 -16.83549 138.25459 32067 ft 453 kts 323°
2026-04-23 23:31 -16.78190 138.22032 32068 ft 453 kts 323°
2026-04-23 23:32 -16.72816 138.18597 32066 ft 452 kts 323°
2026-04-23 23:32 -16.67432 138.15158 32059 ft 453 kts 323°
2026-04-23 23:33 -16.62042 138.11717 32060 ft 452 kts 323°
2026-04-23 23:33 -16.56692 138.08305 32057 ft 452 kts 323°
2026-04-23 23:34 -16.51289 138.04862 32057 ft 452 kts 323°
2026-04-23 23:34 -16.45937 138.01451 32050 ft 453 kts 323°
2026-04-23 23:35 -16.40547 137.98021 32051 ft 453 kts 323°
2026-04-23 23:35 -16.35140 137.94580 32045 ft 451 kts 324°
2026-04-23 23:36 -16.29788 137.91177 32045 ft 453 kts 324°
2026-04-23 23:36 -16.24394 137.87750 32039 ft 453 kts 324°
2026-04-23 23:37 -16.19014 137.84335 32040 ft 452 kts 324°
2026-04-23 23:37 -16.13655 137.80934 32041 ft 451 kts 324°
2026-04-23 23:38 -16.08261 137.77513 32031 ft 452 kts 324°
2026-04-23 23:38 -16.02902 137.74118 32036 ft 452 kts 324°
2026-04-23 23:39 -15.97527 137.70714 32038 ft 452 kts 324°
2026-04-23 23:39 -15.92154 137.67313 32037 ft 451 kts 324°
2026-04-23 23:40 -15.86768 137.63907 32033 ft 452 kts 324°
2026-04-23 23:40 -15.81399 137.60512 32028 ft 452 kts 324°
2026-04-23 23:41 -15.76032 137.57123 32032 ft 450 kts 324°
2026-04-23 23:41 -15.70665 137.53734 32032 ft 451 kts 324°
2026-04-23 23:42 -15.65293 137.50345 32030 ft 451 kts 325°
2026-04-23 23:42 -15.59980 137.46994 32033 ft 451 kts 325°
2026-04-23 23:43 -15.54621 137.43619 32034 ft 451 kts 325°
2026-04-23 23:43 -15.49263 137.40243 32031 ft 451 kts 325°
2026-04-23 23:44 -15.43885 137.36859 32028 ft 451 kts 325°
2026-04-23 23:44 -15.38488 137.33464 32032 ft 451 kts 325°
2026-04-23 23:45 -15.33113 137.30086 32025 ft 450 kts 325°
2026-04-23 23:45 -15.27777 137.26733 32027 ft 450 kts 325°
2026-04-23 23:46 -15.22396 137.23355 32023 ft 450 kts 326°
2026-04-23 23:46 -15.17017 137.19980 32022 ft 451 kts 326°
2026-04-23 23:47 -15.11633 137.16603 32018 ft 452 kts 326°
2026-04-23 23:47 -15.06262 137.13238 32019 ft 450 kts 326°
2026-04-23 23:48 -15.00902 137.09880 32011 ft 450 kts 326°
2026-04-23 23:48 -14.95556 137.06534 32010 ft 450 kts 326°
2026-04-23 23:49 -14.87488 137.01488 32010 ft 449 kts 326°
2026-04-23 23:49 -14.82109 136.98126 32008 ft 450 kts 326°
2026-04-23 23:50 -14.76737 136.94769 32008 ft 450 kts 326°
2026-04-23 23:50 -14.71375 136.91422 32009 ft 451 kts 326°
2026-04-23 23:51 -14.65993 136.88065 32006 ft 450 kts 326°
2026-04-23 23:51 -14.60614 136.84711 32009 ft 450 kts 326°
2026-04-23 23:52 -14.55271 136.81380 32007 ft 449 kts 326°
2026-04-23 23:52 -14.49906 136.78038 32010 ft 450 kts 326°
2026-04-23 23:53 -14.44526 136.74690 32007 ft 449 kts 326°
2026-04-23 23:53 -14.39165 136.71355 32010 ft 450 kts 326°
2026-04-23 23:54 -14.33782 136.68007 32006 ft 449 kts 327°
2026-04-23 23:54 -14.28441 136.64688 31992 ft 449 kts 327°
2026-04-23 23:55 -14.23071 136.61353 31997 ft 450 kts 327°
2026-04-23 23:55 -14.17678 136.58005 31995 ft 450 kts 327°
2026-04-23 23:56 -14.12310 136.54675 31994 ft 449 kts 327°
2026-04-23 23:56 -14.06943 136.51347 31990 ft 448 kts 327°
2026-04-23 23:57 -14.01624 136.48051 31994 ft 448 kts 327°
2026-04-23 23:57 -13.96106 136.44937 32002 ft 450 kts 334°
2026-04-23 23:58 -13.90351 136.42331 31989 ft 451 kts 334°
2026-04-23 23:58 -13.84588 136.39740 31983 ft 451 kts 335°
2026-04-23 23:59 -13.78838 136.37167 31985 ft 451 kts 335°
2026-04-23 23:59 -13.73040 136.34578 31983 ft 450 kts 335°
2026-04-24 00:00 -13.67298 136.32018 31988 ft 450 kts 335°
2026-04-24 00:00 -13.61526 136.29446 31988 ft 450 kts 335°
2026-04-24 00:01 -13.55745 136.26871 31991 ft 450 kts 335°
2026-04-24 00:01 -13.50010 136.24318 31989 ft 450 kts 335°
2026-04-24 00:02 -13.44209 136.21738 31988 ft 451 kts 335°
2026-04-24 00:02 -13.38463 136.19182 31988 ft 449 kts 336°
2026-04-24 00:03 -13.32717 136.16629 31990 ft 450 kts 336°
2026-04-24 00:03 -13.26915 136.14052 31994 ft 451 kts 336°
2026-04-24 00:04 -13.21148 136.11493 31994 ft 451 kts 336°
2026-04-24 00:04 -13.15363 136.08925 31995 ft 451 kts 336°
2026-04-24 00:05 -13.09617 136.06377 31993 ft 451 kts 336°
2026-04-24 00:05 -13.03818 136.03807 31992 ft 451 kts 336°
2026-04-24 00:06 -12.98049 136.01251 31991 ft 452 kts 336°
2026-04-24 00:06 -12.92253 135.98685 31992 ft 452 kts 336°
2026-04-24 00:07 -12.86439 135.96112 31986 ft 451 kts 336°
2026-04-24 00:07 -12.80695 135.93570 31980 ft 450 kts 336°
2026-04-24 00:08 -12.74922 135.91017 31977 ft 451 kts 336°
2026-04-24 00:08 -12.69140 135.88463 31978 ft 451 kts 336°
2026-04-24 00:09 -12.63381 135.85919 31982 ft 451 kts 336°
2026-04-24 00:09 -12.57597 135.83366 31985 ft 451 kts 336°
2026-04-24 00:10 -12.51826 135.80820 31986 ft 450 kts 336°
2026-04-24 00:10 -12.46034 135.78265 31986 ft 450 kts 336°
2026-04-24 00:11 -12.40297 135.75735 31980 ft 450 kts 337°
2026-04-24 00:11 -12.34509 135.73184 31977 ft 451 kts 337°
2026-04-24 00:12 -12.28723 135.70638 31976 ft 451 kts 337°
2026-04-24 00:12 -12.22952 135.68097 31972 ft 451 kts 337°
2026-04-24 00:13 -12.17189 135.65561 31967 ft 451 kts 337°
2026-04-24 00:13 -12.11416 135.63023 31967 ft 449 kts 337°
2026-04-24 00:14 -12.05658 135.60490 31972 ft 449 kts 337°
2026-04-24 00:14 -11.99897 135.57960 31976 ft 450 kts 337°
2026-04-24 00:15 -11.94135 135.55431 31972 ft 451 kts 337°
2026-04-24 00:15 -11.88327 135.52881 31978 ft 452 kts 337°
2026-04-24 00:16 -11.82542 135.50342 31973 ft 451 kts 337°
2026-04-24 00:16 -11.76770 135.47812 31974 ft 450 kts 337°
2026-04-24 00:17 -11.71025 135.45293 31972 ft 449 kts 338°
2026-04-24 00:17 -11.65258 135.42766 31969 ft 450 kts 338°
2026-04-24 00:18 -11.59453 135.40224 31972 ft 451 kts 338°
2026-04-24 00:18 -11.53705 135.37707 31973 ft 451 kts 338°
2026-04-24 00:19 -11.47896 135.35165 31974 ft 451 kts 338°
2026-04-24 00:19 -11.42150 135.32654 31970 ft 450 kts 338°
2026-04-24 00:20 -11.36355 135.30119 31972 ft 451 kts 338°
2026-04-24 00:20 -11.30566 135.27591 31967 ft 451 kts 338°
2026-04-24 00:21 -11.24761 135.25055 31968 ft 452 kts 338°
2026-04-24 00:21 -11.18980 135.22531 31968 ft 452 kts 338°
2026-04-24 00:22 -11.13186 135.20003 31965 ft 452 kts 338°
2026-04-24 00:22 -11.07401 135.17479 31967 ft 450 kts 338°
2026-04-24 00:23 -11.01657 135.14973 31966 ft 450 kts 338°
2026-04-24 00:23 -10.95863 135.12450 31965 ft 451 kts 339°
2026-04-24 00:24 -10.90067 135.09924 31960 ft 453 kts 338°
2026-04-24 00:24 -10.84241 135.07387 31961 ft 454 kts 338°
2026-04-24 00:25 -10.78443 135.04863 31961 ft 452 kts 338°
2026-04-24 00:25 -10.72649 135.02342 31949 ft 452 kts 339°
2026-04-24 00:26 -10.66836 134.99815 31947 ft 452 kts 338°
2026-04-24 00:26 -10.61049 134.97299 31940 ft 452 kts 338°
2026-04-24 00:27 -10.55266 134.94786 31936 ft 453 kts 339°
2026-04-24 00:27 -10.49445 134.92258 31936 ft 455 kts 339°
2026-04-24 00:28 -10.43596 134.89719 31932 ft 454 kts 339°
2026-04-24 00:28 -10.37805 134.87204 31935 ft 452 kts 339°
2026-04-24 00:29 -10.31988 134.84682 31930 ft 453 kts 339°
2026-04-24 00:29 -10.26151 134.82150 31929 ft 454 kts 339°
2026-04-24 00:30 -10.20323 134.79623 31931 ft 454 kts 339°
2026-04-24 00:30 -10.14488 134.77095 31930 ft 454 kts 339°
2026-04-24 00:31 -10.08648 134.74565 31927 ft 455 kts 339°
2026-04-24 00:31 -10.02782 134.72026 31926 ft 455 kts 339°
2026-04-24 00:32 -9.96971 134.69511 31925 ft 454 kts 339°
2026-04-24 00:32 -9.91113 134.66977 31926 ft 454 kts 339°
2026-04-24 00:33 -9.85280 134.64453 31932 ft 454 kts 339°
2026-04-24 00:33 -9.79427 134.61923 31936 ft 454 kts 339°
2026-04-24 00:34 -9.73587 134.59399 31936 ft 454 kts 339°
2026-04-24 00:34 -9.67779 134.56891 31940 ft 452 kts 339°
2026-04-24 00:35 -9.61963 134.54379 31939 ft 452 kts 339°
2026-04-24 00:35 -9.56171 134.51880 31932 ft 453 kts 339°
2026-04-24 00:36 -9.50351 134.49368 31935 ft 452 kts 339°
2026-04-24 00:36 -9.44551 134.46867 31931 ft 452 kts 339°
2026-04-24 00:37 -9.38767 134.44373 31932 ft 452 kts 339°
2026-04-24 00:37 -9.32974 134.41876 31933 ft 451 kts 339°
2026-04-24 00:38 -9.27162 134.39372 31930 ft 450 kts 339°
2026-04-24 00:38 -9.21384 134.36883 31933 ft 451 kts 339°
2026-04-24 00:39 -9.15589 134.34389 31928 ft 451 kts 340°
2026-04-24 00:39 -9.09796 134.31895 31923 ft 450 kts 340°
2026-04-24 00:40 -9.04011 134.29407 31920 ft 450 kts 340°
2026-04-24 00:40 -8.98209 134.26912 31918 ft 450 kts 340°
2026-04-24 00:41 -8.92426 134.24425 31915 ft 451 kts 340°
2026-04-24 00:41 -8.86627 134.21933 31924 ft 452 kts 340°
2026-04-24 00:42 -8.80798 134.19429 31911 ft 454 kts 340°
2026-04-24 00:42 -8.74962 134.16923 31900 ft 454 kts 340°
2026-04-24 00:43 -8.69147 134.14426 31907 ft 455 kts 340°
2026-04-24 00:43 -8.63280 134.11906 31903 ft 455 kts 340°
2026-04-24 00:44 -8.57436 134.09401 31894 ft 457 kts 340°
2026-04-24 00:44 -8.51524 134.06865 31921 ft 461 kts 339°
2026-04-24 00:45 -8.45637 134.04338 31897 ft 451 kts 340°
2026-04-24 00:45 -8.39903 134.01883 31923 ft 448 kts 341°
2026-04-24 00:46 -8.34093 133.99394 31890 ft 449 kts 340°
2026-04-24 00:46 -8.28303 133.96912 31909 ft 456 kts 340°
2026-04-24 00:47 -8.22386 133.94380 31906 ft 462 kts 340°
2026-04-24 00:47 -8.16525 133.91870 31939 ft 455 kts 340°
2026-04-24 00:48 -8.10651 133.89354 31873 ft 452 kts 341°
2026-04-24 00:48 -8.04840 133.86871 31921 ft 456 kts 341°
2026-04-24 00:49 -7.99076 133.84401 31925 ft 439 kts 340°
2026-04-24 00:49 -7.93385 133.81973 31910 ft 449 kts 339°
2026-04-24 00:50 -7.87581 133.79492 31915 ft 458 kts 340°
2026-04-24 00:50 -7.81642 133.76956 31916 ft 467 kts 339°
2026-04-24 00:51 -7.75664 133.74402 31916 ft 466 kts 340°
2026-04-24 00:51 -7.69677 133.71846 31912 ft 465 kts 340°
2026-04-24 00:52 -7.63736 133.69310 31915 ft 464 kts 340°
2026-04-24 00:52 -7.57743 133.66753 31916 ft 465 kts 340°
2026-04-24 00:53 -7.51768 133.64203 31918 ft 465 kts 340°
2026-04-24 00:53 -7.45809 133.61661 31910 ft 465 kts 340°
2026-04-24 00:54 -7.39832 133.58978 31916 ft 468 kts 332°
2026-04-24 00:54 -7.34327 133.55481 31910 ft 470 kts 329°
2026-04-24 00:55 -7.28799 133.51909 31921 ft 469 kts 329°
2026-04-24 00:55 -7.23273 133.48328 31920 ft 468 kts 330°
2026-04-24 00:56 -7.17783 133.44768 31928 ft 468 kts 329°
2026-04-24 00:56 -7.12315 133.41220 31925 ft 468 kts 330°
2026-04-24 00:57 -7.06824 133.37660 31933 ft 468 kts 329°
2026-04-24 00:58 -6.98581 133.32317 31922 ft 469 kts 329°
2026-04-24 00:58 -6.93081 133.28752 31925 ft 467 kts 330°
2026-04-24 00:59 -6.87616 133.25211 31918 ft 467 kts 329°
2026-04-24 00:59 -6.82144 133.21668 31917 ft 467 kts 329°
2026-04-24 01:00 -6.76677 133.18127 31908 ft 467 kts 329°
2026-04-24 01:00 -6.71218 133.14594 31907 ft 467 kts 329°
2026-04-24 01:01 -6.65717 133.11032 31906 ft 467 kts 329°
2026-04-24 01:01 -6.60245 133.07492 31905 ft 466 kts 329°
2026-04-24 01:02 -6.54812 133.03978 31906 ft 464 kts 329°
2026-04-24 01:02 -6.49343 133.00442 31904 ft 465 kts 329°
2026-04-24 01:03 -6.43900 132.96924 31903 ft 464 kts 329°
2026-04-24 01:03 -6.38432 132.93388 31905 ft 465 kts 329°
2026-04-24 01:04 -6.32982 132.89868 31902 ft 465 kts 329°
2026-04-24 01:04 -6.27550 132.86359 31905 ft 464 kts 329°
2026-04-24 01:05 -6.22080 132.82825 31903 ft 464 kts 329°
2026-04-24 01:05 -6.16659 132.79324 31905 ft 464 kts 329°
2026-04-24 01:06 -6.11197 132.75800 31904 ft 463 kts 329°
2026-04-24 01:06 -6.05747 132.72282 31901 ft 464 kts 329°
2026-04-24 01:07 -6.00306 132.68771 31905 ft 464 kts 329°
2026-04-24 01:07 -5.94843 132.65248 31906 ft 464 kts 329°
2026-04-24 01:08 -5.89404 132.61740 31917 ft 464 kts 329°
2026-04-24 01:08 -5.83964 132.58234 31924 ft 464 kts 329°
2026-04-24 01:09 -5.78513 132.54719 31924 ft 465 kts 329°
2026-04-24 01:09 -5.73033 132.51189 31926 ft 464 kts 329°
2026-04-24 01:10 -5.67600 132.47688 31931 ft 465 kts 329°
2026-04-24 01:10 -5.62120 132.44157 31925 ft 466 kts 329°
2026-04-24 01:11 -5.56659 132.40642 31927 ft 465 kts 329°
2026-04-24 01:11 -5.51184 132.37115 31929 ft 466 kts 329°
2026-04-24 01:12 -5.45723 132.33601 31923 ft 466 kts 329°
2026-04-24 01:12 -5.40212 132.30055 31924 ft 466 kts 329°
2026-04-24 01:13 -5.34735 132.26531 31923 ft 467 kts 329°
2026-04-24 01:13 -5.29244 132.22998 31922 ft 469 kts 329°
2026-04-24 01:14 -5.23721 132.19446 31922 ft 469 kts 329°
2026-04-24 01:14 -5.18224 132.15912 31923 ft 469 kts 329°
2026-04-24 01:15 -5.12712 132.12369 31918 ft 469 kts 329°
2026-04-24 01:15 -5.07189 132.08820 31912 ft 469 kts 329°
2026-04-24 01:16 -5.01670 132.05272 31908 ft 470 kts 329°
2026-04-24 01:16 -4.96124 132.01709 31906 ft 470 kts 329°
2026-04-24 01:17 -4.90607 131.98166 31909 ft 470 kts 329°
2026-04-24 01:17 -4.85076 131.94614 31911 ft 470 kts 329°
2026-04-24 01:18 -4.79546 131.91063 31911 ft 470 kts 329°
2026-04-24 01:18 -4.74032 131.87523 31903 ft 470 kts 329°
2026-04-24 01:19 -4.68496 131.83969 31906 ft 470 kts 328°
2026-04-24 01:19 -4.62971 131.80423 31904 ft 470 kts 329°
2026-04-24 01:20 -4.57448 131.76881 31906 ft 471 kts 329°
2026-04-24 01:20 -4.51926 131.73338 31905 ft 471 kts 328°
2026-04-24 01:21 -4.46401 131.69795 31908 ft 470 kts 328°
2026-04-24 01:21 -4.40879 131.66254 31911 ft 471 kts 328°
2026-04-24 01:22 -4.35294 131.62674 31907 ft 472 kts 329°
2026-04-24 01:22 -4.29759 131.59125 31907 ft 471 kts 329°
2026-04-24 01:23 -4.24204 131.55565 31909 ft 473 kts 329°
2026-04-24 01:23 -4.18654 131.52008 31908 ft 473 kts 328°
2026-04-24 01:24 -4.13084 131.48441 31912 ft 473 kts 328°
2026-04-24 01:24 -4.07505 131.44867 31918 ft 473 kts 328°
2026-04-24 01:25 -4.01921 131.41290 31915 ft 474 kts 328°
2026-04-24 01:25 -3.96340 131.37715 31916 ft 475 kts 328°
2026-04-24 01:26 -3.90752 131.34139 31917 ft 477 kts 328°
2026-04-24 01:26 -3.85179 131.30569 31917 ft 474 kts 328°
2026-04-24 01:27 -3.79584 131.26990 31921 ft 475 kts 328°
2026-04-24 01:27 -3.73966 131.23395 31923 ft 474 kts 328°
2026-04-24 01:28 -3.68395 131.19830 31924 ft 474 kts 328°
2026-04-24 01:28 -3.62801 131.16251 31926 ft 476 kts 328°
2026-04-24 01:29 -3.57211 131.12676 31923 ft 475 kts 328°
2026-04-24 01:29 -3.51635 131.09109 31925 ft 475 kts 329°
2026-04-24 01:30 -3.46040 131.05531 31920 ft 476 kts 328°
2026-04-24 01:30 -3.40456 131.01961 31922 ft 474 kts 328°
2026-04-24 01:31 -3.34880 130.98396 31926 ft 474 kts 328°
2026-04-24 01:31 -3.29286 130.94821 31926 ft 474 kts 328°
2026-04-24 01:32 -3.23706 130.91254 31927 ft 474 kts 328°
2026-04-24 01:32 -3.18140 130.87698 31927 ft 474 kts 328°
2026-04-24 01:33 -3.12578 130.84145 31928 ft 474 kts 328°
2026-04-24 01:33 -3.07007 130.80585 31926 ft 473 kts 328°
2026-04-24 01:34 -3.01427 130.77020 31926 ft 472 kts 328°
2026-04-24 01:34 -2.95856 130.73462 31927 ft 474 kts 328°
2026-04-24 01:35 -2.90319 130.69925 31923 ft 473 kts 328°
2026-04-24 01:35 -2.84734 130.66356 31917 ft 472 kts 328°
2026-04-24 01:36 -2.79237 130.62796 31914 ft 472 kts 328°
2026-04-24 01:36 -2.73677 130.59196 31912 ft 474 kts 328°
2026-04-24 01:37 -2.68131 130.55606 31909 ft 473 kts 328°
2026-04-24 01:37 -2.62607 130.52031 31910 ft 473 kts 328°
2026-04-24 01:38 -2.57182 130.48520 31912 ft 474 kts 328°
2026-04-24 01:38 -2.51657 130.44943 31913 ft 474 kts 328°
2026-04-24 01:39 -2.46084 130.41338 31914 ft 473 kts 328°
2026-04-24 01:39 -2.40514 130.37733 31914 ft 474 kts 328°
2026-04-24 01:40 -2.35103 130.34233 31916 ft 476 kts 328°
2026-04-24 01:40 -2.29442 130.30571 31910 ft 474 kts 328°
2026-04-24 01:41 -2.23886 130.26978 31914 ft 473 kts 328°
2026-04-24 01:41 -2.18326 130.23381 31910 ft 476 kts 328°
2026-04-24 01:42 -2.12752 130.19777 31909 ft 477 kts 328°
2026-04-24 01:42 -2.07153 130.16156 31909 ft 475 kts 328°
2026-04-24 01:43 -2.01584 130.12555 31910 ft 477 kts 328°
2026-04-24 01:43 -1.95989 130.08937 31915 ft 477 kts 328°
2026-04-24 01:44 -1.90403 130.05327 31913 ft 477 kts 328°
2026-04-24 01:44 -1.84856 130.01739 31911 ft 476 kts 328°
2026-04-24 01:45 -1.79316 129.98158 31909 ft 475 kts 328°
2026-04-24 01:45 -1.73704 129.94531 31906 ft 475 kts 328°
2026-04-24 01:46 -1.68179 129.90961 31912 ft 475 kts 328°
2026-04-24 01:46 -1.62593 129.87350 31918 ft 475 kts 328°
2026-04-24 01:47 -1.57037 129.83760 31916 ft 475 kts 328°
2026-04-24 01:47 -1.51448 129.80148 31914 ft 475 kts 328°
2026-04-24 01:48 -1.45884 129.76553 31912 ft 474 kts 328°
2026-04-24 01:48 -1.40327 129.72963 31912 ft 474 kts 328°
2026-04-24 01:49 -1.34741 129.69354 31912 ft 473 kts 328°
2026-04-24 01:49 -1.29235 129.65797 31910 ft 472 kts 329°
2026-04-24 01:50 -1.23737 129.62245 31915 ft 473 kts 328°
2026-04-24 01:50 -1.18212 129.58676 31923 ft 473 kts 329°
2026-04-24 01:51 -1.12663 129.55092 31927 ft 473 kts 328°
2026-04-24 01:51 -1.07110 129.51506 31926 ft 472 kts 328°
2026-04-24 01:52 -1.01575 129.47931 31930 ft 472 kts 329°
2026-04-24 01:52 -0.96042 129.44357 31933 ft 472 kts 329°
2026-04-24 01:53 -0.90497 129.40776 31936 ft 471 kts 329°
2026-04-24 01:53 -0.85002 129.37227 31931 ft 471 kts 329°
2026-04-24 01:54 -0.79657 129.33775 31925 ft 471 kts 329°
2026-04-24 01:54 -0.74196 129.30249 31927 ft 470 kts 329°
2026-04-24 01:55 -0.68676 129.26685 31928 ft 470 kts 329°
2026-04-24 01:55 -0.63170 129.23129 31925 ft 469 kts 329°
2026-04-24 01:56 -0.57657 129.19569 31924 ft 469 kts 329°
2026-04-24 01:56 -0.52179 129.16032 31928 ft 470 kts 329°
2026-04-24 01:57 -0.46661 129.12470 31921 ft 469 kts 329°
2026-04-24 01:57 -0.41177 129.08929 31918 ft 467 kts 329°
2026-04-24 01:58 -0.35734 129.05415 31917 ft 467 kts 329°
2026-04-24 01:58 -0.30255 129.01877 31919 ft 468 kts 329°
2026-04-24 01:59 -0.24758 128.98328 31913 ft 468 kts 329°
2026-04-24 01:59 -0.19266 128.94783 31906 ft 467 kts 329°
2026-04-24 02:00 -0.13786 128.91244 31907 ft 468 kts 329°
2026-04-24 02:00 -0.08313 128.87712 31903 ft 466 kts 329°
2026-04-24 02:01 -0.02849 128.84183 31906 ft 467 kts 329°
2026-04-24 02:01 0.02600 128.80667 31905 ft 468 kts 329°
2026-04-24 02:02 0.08112 128.77107 31906 ft 467 kts 329°
2026-04-24 02:02 0.13515 128.73619 31906 ft 466 kts 329°
2026-04-24 02:03 0.21724 128.68320 31906 ft 466 kts 329°
2026-04-24 02:03 0.27178 128.64798 31907 ft 466 kts 329°
2026-04-24 02:04 0.32650 128.61266 31911 ft 466 kts 329°
2026-04-24 02:04 0.38120 128.57733 31916 ft 467 kts 329°
2026-04-24 02:05 0.43564 128.54219 31923 ft 465 kts 329°
2026-04-24 02:05 0.49053 128.50674 31931 ft 465 kts 329°
2026-04-24 02:06 0.54472 128.47176 31933 ft 464 kts 329°
2026-04-24 02:06 0.59912 128.43663 31930 ft 465 kts 329°
2026-04-24 02:07 0.65354 128.40149 31927 ft 464 kts 329°
2026-04-24 02:07 0.70832 128.36612 31921 ft 464 kts 329°
2026-04-24 02:08 0.76244 128.33118 31912 ft 464 kts 329°
2026-04-24 02:08 0.81691 128.29599 31929 ft 463 kts 329°
2026-04-24 02:09 0.87153 128.26073 31946 ft 464 kts 329°
2026-04-24 02:09 0.92596 128.22557 31965 ft 465 kts 329°
2026-04-24 02:10 0.98024 128.19052 31979 ft 464 kts 329°
2026-04-24 02:10 1.03469 128.15535 31989 ft 463 kts 329°
2026-04-24 02:11 1.08872 128.12045 31976 ft 462 kts 329°
2026-04-24 02:11 1.14290 128.08545 31968 ft 462 kts 329°
2026-04-24 02:12 1.19709 128.05045 31957 ft 463 kts 329°
2026-04-24 02:12 1.25132 128.01543 31935 ft 463 kts 329°
2026-04-24 02:13 1.30594 127.98014 31928 ft 464 kts 329°
2026-04-24 02:13 1.35993 127.94526 31933 ft 463 kts 329°
2026-04-24 02:14 1.41444 127.91004 31941 ft 464 kts 329°
2026-04-24 02:14 1.46895 127.87482 31946 ft 464 kts 329°
2026-04-24 02:15 1.52358 127.83952 31949 ft 464 kts 329°
2026-04-24 02:15 1.57793 127.80440 31952 ft 464 kts 329°
2026-04-24 02:16 1.63220 127.76932 31949 ft 464 kts 329°
2026-04-24 02:16 1.68642 127.73429 31946 ft 463 kts 329°
2026-04-24 02:17 1.74078 127.69916 31942 ft 464 kts 328°
2026-04-24 02:17 1.79538 127.66386 31936 ft 465 kts 328°
2026-04-24 02:18 1.85013 127.62848 31930 ft 465 kts 328°
2026-04-24 02:18 1.90462 127.59325 31918 ft 465 kts 328°
2026-04-24 02:19 1.95932 127.55788 31911 ft 464 kts 328°
2026-04-24 02:19 2.01387 127.52309 31906 ft 464 kts 329°
2026-04-24 02:20 2.06870 127.48844 31908 ft 464 kts 329°
2026-04-24 02:20 2.11961 127.45626 31907 ft 464 kts 329°
2026-04-24 02:21 2.17431 127.42168 31908 ft 465 kts 329°
2026-04-24 02:21 2.22969 127.38667 31908 ft 466 kts 329°
2026-04-24 02:22 2.28463 127.35192 31908 ft 465 kts 329°
2026-04-24 02:22 2.33919 127.31743 31904 ft 465 kts 329°
2026-04-24 02:23 2.39389 127.28283 31904 ft 466 kts 329°
2026-04-24 02:23 2.44908 127.24792 31904 ft 466 kts 329°
2026-04-24 02:24 2.50393 127.21323 31906 ft 467 kts 329°
2026-04-24 02:24 2.55935 127.17816 31905 ft 467 kts 329°
2026-04-24 02:25 2.61453 127.14325 31904 ft 467 kts 329°
2026-04-24 02:25 2.66955 127.10844 31905 ft 467 kts 329°
2026-04-24 02:26 2.72448 127.07368 31905 ft 468 kts 329°
2026-04-24 02:26 2.77999 127.03854 31905 ft 469 kts 329°
2026-04-24 02:27 2.83534 127.00351 31905 ft 468 kts 329°
2026-04-24 02:27 2.89067 126.96848 31904 ft 468 kts 328°
2026-04-24 02:28 2.94585 126.93354 31906 ft 469 kts 328°
2026-04-24 02:28 3.00131 126.89843 31905 ft 469 kts 328°
2026-04-24 02:29 3.05673 126.86334 31905 ft 469 kts 328°
2026-04-24 02:29 3.11213 126.82824 31906 ft 469 kts 328°
2026-04-24 02:30 3.16731 126.79329 31905 ft 471 kts 328°
2026-04-24 02:30 3.22301 126.75800 31905 ft 471 kts 328°
2026-04-24 02:31 3.27859 126.72279 31905 ft 470 kts 328°
2026-04-24 02:31 3.33385 126.68777 31904 ft 470 kts 328°
2026-04-24 02:32 3.38945 126.65253 31905 ft 470 kts 328°
2026-04-24 02:32 3.44471 126.61750 31905 ft 470 kts 328°
2026-04-24 02:33 3.50033 126.58225 31906 ft 471 kts 328°
2026-04-24 02:33 3.55612 126.54687 31907 ft 472 kts 328°
2026-04-24 02:34 3.61171 126.51162 31905 ft 471 kts 328°
2026-04-24 02:34 3.66742 126.47629 31911 ft 470 kts 328°
2026-04-24 02:35 3.72267 126.44125 31919 ft 470 kts 328°
2026-04-24 02:35 3.77829 126.40595 31926 ft 470 kts 328°
2026-04-24 02:36 3.83386 126.37070 31927 ft 471 kts 328°
2026-04-24 02:36 3.88941 126.33544 31924 ft 471 kts 328°
2026-04-24 02:37 3.94500 126.30016 31924 ft 471 kts 328°
2026-04-24 02:37 4.00067 126.26481 31924 ft 471 kts 328°
2026-04-24 02:38 4.05571 126.22927 31924 ft 470 kts 328°
2026-04-24 02:38 4.11051 126.19386 31925 ft 470 kts 328°
2026-04-24 02:39 4.16590 126.15807 31923 ft 470 kts 328°
2026-04-24 02:39 4.22101 126.12245 31924 ft 472 kts 328°
2026-04-24 02:40 4.27651 126.08659 31925 ft 472 kts 328°
2026-04-24 02:40 4.33180 126.05084 31925 ft 472 kts 328°
2026-04-24 02:41 4.38732 126.01494 31925 ft 471 kts 328°
2026-04-24 02:41 4.44267 125.97914 31926 ft 471 kts 328°
2026-04-24 02:42 4.49812 125.94327 31926 ft 471 kts 328°
2026-04-24 02:42 4.55332 125.90756 31926 ft 471 kts 328°
2026-04-24 02:43 4.60848 125.87187 31926 ft 471 kts 328°
2026-04-24 02:43 4.66408 125.83588 31926 ft 470 kts 328°
2026-04-24 02:44 4.71938 125.80009 31927 ft 470 kts 328°
2026-04-24 02:44 4.77444 125.76444 31925 ft 470 kts 328°
2026-04-24 02:45 4.82974 125.72864 31928 ft 471 kts 328°
2026-04-24 02:45 4.88458 125.69311 31928 ft 471 kts 328°
2026-04-24 02:46 4.94002 125.65720 31927 ft 471 kts 328°
2026-04-24 02:46 4.99510 125.62151 31927 ft 470 kts 328°
2026-04-24 02:47 5.05010 125.58586 31927 ft 470 kts 328°
2026-04-24 02:47 5.10387 125.55100 31927 ft 469 kts 328°